Year,Month,Day,Hour,Minute,Value (Times are PST for barometer in hPa)
2009,05,05,00,00,990.31
2009,05,05,00,01,990.32
2009,05,05,00,02,990.32
2009,05,05,00,03,990.32
2009,05,05,00,04,990.32
2009,05,05,00,05,990.32
2009,05,05,00,06,990.32
2009,05,05,00,07,990.32
2009,05,05,00,08,990.32
2009,05,05,00,09,990.32
2009,05,05,00,10,990.32
2009,05,05,00,11,990.32
2009,05,05,00,12,990.32
2009,05,05,00,13,990.32
2009,05,05,00,14,990.32
2009,05,05,00,15,990.16
2009,05,05,00,16,990.15
2009,05,05,00,17,990.15
2009,05,05,00,18,990.15
2009,05,05,00,19,990.15
2009,05,05,00,20,990.15
2009,05,05,00,21,990.15
2009,05,05,00,22,990.15
2009,05,05,00,23,990.15
2009,05,05,00,24,990.15
2009,05,05,00,25,990.15
2009,05,05,00,26,990.15
2009,05,05,00,27,990.15
2009,05,05,00,28,990.15
2009,05,05,00,29,990.15
2009,05,05,00,30,990.18
2009,05,05,00,31,990.18
2009,05,05,00,32,990.18
2009,05,05,00,33,990.18
2009,05,05,00,34,990.18
2009,05,05,00,35,990.18
2009,05,05,00,36,990.18
2009,05,05,00,37,990.18
2009,05,05,00,38,990.18
2009,05,05,00,39,990.18
2009,05,05,00,40,990.18
2009,05,05,00,41,990.18
2009,05,05,00,42,990.18
2009,05,05,00,43,990.18
2009,05,05,00,44,990.18
2009,05,05,00,45,990.62
2009,05,05,00,46,990.62
2009,05,05,00,47,990.62
2009,05,05,00,48,990.62
2009,05,05,00,49,990.62
2009,05,05,00,50,990.62
2009,05,05,00,51,990.62
2009,05,05,00,52,990.62
2009,05,05,00,53,990.62
2009,05,05,00,54,990.62
2009,05,05,00,55,990.62
2009,05,05,00,56,990.62
2009,05,05,00,57,990.62
2009,05,05,00,58,990.62
2009,05,05,00,59,990.62
2009,05,05,01,00,990.89
2009,05,05,01,01,990.89
2009,05,05,01,02,990.89
2009,05,05,01,03,990.89
2009,05,05,01,04,990.89
2009,05,05,01,05,990.89
2009,05,05,01,06,990.89
2009,05,05,01,07,990.89
2009,05,05,01,08,990.89
2009,05,05,01,09,990.89
2009,05,05,01,10,990.89
2009,05,05,01,11,990.89
2009,05,05,01,12,990.89
2009,05,05,01,13,990.89
2009,05,05,01,14,990.89
2009,05,05,01,15,991.09
2009,05,05,01,16,991.09
2009,05,05,01,17,991.09
2009,05,05,01,18,991.09
2009,05,05,01,19,991.09
2009,05,05,01,20,991.09
2009,05,05,01,21,991.09
2009,05,05,01,22,991.09
2009,05,05,01,23,991.09
2009,05,05,01,24,991.09
2009,05,05,01,25,991.09
2009,05,05,01,26,991.09
2009,05,05,01,27,991.09
2009,05,05,01,28,991.09
2009,05,05,01,29,991.09
2009,05,05,01,30,991.22
2009,05,05,01,31,991.23
2009,05,05,01,32,991.23
2009,05,05,01,33,991.23
2009,05,05,01,34,991.23
2009,05,05,01,35,991.23
2009,05,05,01,36,991.23
2009,05,05,01,37,991.23
2009,05,05,01,38,991.23
2009,05,05,01,39,991.23
2009,05,05,01,40,991.23
2009,05,05,01,41,991.23
2009,05,05,01,42,991.23
2009,05,05,01,43,991.23
2009,05,05,01,44,991.23
2009,05,05,01,45,991.00
2009,05,05,01,46,990.99
2009,05,05,01,47,990.99
2009,05,05,01,48,990.99
2009,05,05,01,49,990.99
2009,05,05,01,50,990.99
2009,05,05,01,51,990.99
2009,05,05,01,52,990.99
2009,05,05,01,53,990.99
2009,05,05,01,54,990.99
2009,05,05,01,55,990.99
2009,05,05,01,56,990.99
2009,05,05,01,57,990.99
2009,05,05,01,58,990.99
2009,05,05,01,59,990.99
2009,05,05,02,00,991.25
2009,05,05,02,01,991.26
2009,05,05,02,02,991.26
2009,05,05,02,03,991.26
2009,05,05,02,04,991.26
2009,05,05,02,05,991.26
2009,05,05,02,06,991.26
2009,05,05,02,07,991.26
2009,05,05,02,08,991.26
2009,05,05,02,09,991.26
2009,05,05,02,10,991.26
2009,05,05,02,11,991.26
2009,05,05,02,12,991.26
2009,05,05,02,13,991.26
2009,05,05,02,14,991.26
2009,05,05,02,15,991.26
2009,05,05,02,16,991.26
2009,05,05,02,17,991.26
2009,05,05,02,18,991.26
2009,05,05,02,19,991.26
2009,05,05,02,20,991.26
2009,05,05,02,21,991.26
2009,05,05,02,22,991.26
2009,05,05,02,23,991.26
2009,05,05,02,24,991.26
2009,05,05,02,25,991.26
2009,05,05,02,26,991.26
2009,05,05,02,27,991.26
2009,05,05,02,28,991.26
2009,05,05,02,29,991.26
2009,05,05,02,30,991.43
2009,05,05,02,31,991.43
2009,05,05,02,32,991.43
2009,05,05,02,33,991.43
2009,05,05,02,34,991.43
2009,05,05,02,35,991.43
2009,05,05,02,36,991.43
2009,05,05,02,37,991.43
2009,05,05,02,38,991.43
2009,05,05,02,39,991.43
2009,05,05,02,40,991.43
2009,05,05,02,41,991.43
2009,05,05,02,42,991.43
2009,05,05,02,43,991.43
2009,05,05,02,44,991.43
2009,05,05,02,45,991.66
2009,05,05,02,46,991.67
2009,05,05,02,47,991.67
2009,05,05,02,48,991.67
2009,05,05,02,49,991.67
2009,05,05,02,50,991.67
2009,05,05,02,51,991.67
2009,05,05,02,52,991.67
2009,05,05,02,53,991.67
2009,05,05,02,54,991.67
2009,05,05,02,55,991.67
2009,05,05,02,56,991.67
2009,05,05,02,57,991.67
2009,05,05,02,58,991.67
2009,05,05,02,59,991.67
2009,05,05,03,00,991.90
2009,05,05,03,01,991.91
2009,05,05,03,02,991.91
2009,05,05,03,03,991.91
2009,05,05,03,04,991.91
2009,05,05,03,05,991.91
2009,05,05,03,06,991.91
2009,05,05,03,07,991.91
2009,05,05,03,08,991.91
2009,05,05,03,09,991.91
2009,05,05,03,10,991.91
2009,05,05,03,11,991.91
2009,05,05,03,12,991.91
2009,05,05,03,13,991.91
2009,05,05,03,14,991.91
2009,05,05,03,15,992.68
2009,05,05,03,16,992.72
2009,05,05,03,17,992.72
2009,05,05,03,18,992.72
2009,05,05,03,19,992.72
2009,05,05,03,20,992.72
2009,05,05,03,21,992.72
2009,05,05,03,22,992.72
2009,05,05,03,23,992.72
2009,05,05,03,24,992.72
2009,05,05,03,25,992.72
2009,05,05,03,26,992.72
2009,05,05,03,27,992.72
2009,05,05,03,28,992.72
2009,05,05,03,29,992.72
2009,05,05,03,30,992.82
2009,05,05,03,31,992.82
2009,05,05,03,32,992.82
2009,05,05,03,33,992.82
2009,05,05,03,34,992.82
2009,05,05,03,35,992.82
2009,05,05,03,36,992.82
2009,05,05,03,37,992.82
2009,05,05,03,38,992.82
2009,05,05,03,39,992.82
2009,05,05,03,40,992.82
2009,05,05,03,41,992.82
2009,05,05,03,42,992.82
2009,05,05,03,43,992.82
2009,05,05,03,44,992.82
2009,05,05,03,45,992.82
2009,05,05,03,46,992.82
2009,05,05,03,47,992.82
2009,05,05,03,48,992.82
2009,05,05,03,49,992.82
2009,05,05,03,50,992.82
2009,05,05,03,51,992.82
2009,05,05,03,52,992.82
2009,05,05,03,53,992.82
2009,05,05,03,54,992.82
2009,05,05,03,55,992.82
2009,05,05,03,56,992.82
2009,05,05,03,57,992.82
2009,05,05,03,58,992.82
2009,05,05,03,59,992.82
2009,05,05,04,00,993.19
2009,05,05,04,01,993.19
2009,05,05,04,02,993.19
2009,05,05,04,03,993.19
2009,05,05,04,04,993.19
2009,05,05,04,05,993.19
2009,05,05,04,06,993.19
2009,05,05,04,07,993.19
2009,05,05,04,08,993.19
2009,05,05,04,12,993.19
2009,05,05,04,13,993.19
2009,05,05,04,14,993.19
2009,05,05,04,15,993.40
2009,05,05,04,16,993.40
2009,05,05,04,17,993.40
2009,05,05,04,18,993.40
2009,05,05,04,19,993.40
2009,05,05,04,20,993.40
2009,05,05,04,21,993.40
2009,05,05,04,22,993.40
2009,05,05,04,23,993.40
2009,05,05,04,24,993.40
2009,05,05,04,25,993.40
2009,05,05,04,26,993.40
2009,05,05,04,27,993.40
2009,05,05,04,28,993.40
2009,05,05,04,29,993.40
2009,05,05,04,30,993.75
2009,05,05,04,31,993.77
2009,05,05,04,32,993.77
2009,05,05,04,33,993.77
2009,05,05,04,34,993.77
2009,05,05,04,35,993.77
2009,05,05,04,36,993.77
2009,05,05,04,37,993.77
2009,05,05,04,38,993.77
2009,05,05,04,39,993.77
2009,05,05,04,40,993.77
2009,05,05,04,41,993.77
2009,05,05,04,42,993.77
2009,05,05,04,43,993.77
2009,05,05,04,44,993.77
2009,05,05,04,45,994.19
2009,05,05,04,46,994.21
2009,05,05,04,47,994.21
2009,05,05,04,48,994.21
2009,05,05,04,49,994.21
2009,05,05,04,50,994.21
2009,05,05,04,51,994.21
2009,05,05,04,52,994.21
2009,05,05,04,53,994.21
2009,05,05,04,54,994.21
2009,05,05,04,55,994.21
2009,05,05,04,56,994.21
2009,05,05,04,57,994.21
2009,05,05,04,58,994.21
2009,05,05,04,59,994.21
2009,05,05,05,00,994.40
2009,05,05,05,01,994.41
2009,05,05,05,02,994.41
2009,05,05,05,03,994.41
2009,05,05,05,04,994.41
2009,05,05,05,05,994.41
2009,05,05,05,06,994.41
2009,05,05,05,07,994.41
2009,05,05,05,08,994.41
2009,05,05,05,09,994.41
2009,05,05,05,10,994.41
2009,05,05,05,11,994.41
2009,05,05,05,12,994.41
2009,05,05,05,13,994.41
2009,05,05,05,14,994.41
2009,05,05,05,15,994.41
2009,05,05,05,16,994.41
2009,05,05,05,17,994.41
2009,05,05,05,18,994.41
2009,05,05,05,19,994.41
2009,05,05,05,20,994.41
2009,05,05,05,21,994.41
2009,05,05,05,22,994.41
2009,05,05,05,23,994.41
2009,05,05,05,24,994.41
2009,05,05,05,25,994.41
2009,05,05,05,26,994.41
2009,05,05,05,27,994.41
2009,05,05,05,28,994.41
2009,05,05,05,29,994.41
2009,05,05,05,30,994.72
2009,05,05,05,31,994.72
2009,05,05,05,32,994.72
2009,05,05,05,33,994.72
2009,05,05,05,34,994.72
2009,05,05,05,35,994.72
2009,05,05,05,36,994.72
2009,05,05,05,37,994.72
2009,05,05,05,38,994.72
2009,05,05,05,39,994.72
2009,05,05,05,40,994.72
2009,05,05,05,41,994.72
2009,05,05,05,42,994.72
2009,05,05,05,43,994.72
2009,05,05,05,44,994.72
2009,05,05,05,45,995.06
2009,05,05,05,46,995.06
2009,05,05,05,47,995.06
2009,05,05,05,48,995.06
2009,05,05,05,49,995.06
2009,05,05,05,50,995.06
2009,05,05,05,51,995.06
2009,05,05,05,52,995.06
2009,05,05,05,53,995.06
2009,05,05,05,54,995.06
2009,05,05,05,55,995.06
2009,05,05,05,56,995.06
2009,05,05,05,57,995.06
2009,05,05,05,58,995.06
2009,05,05,05,59,995.06
2009,05,05,06,00,995.43
2009,05,05,06,01,995.43
2009,05,05,06,02,995.43
2009,05,05,06,03,995.43
2009,05,05,06,04,995.43
2009,05,05,06,05,995.43
2009,05,05,06,06,995.43
2009,05,05,06,07,995.43
2009,05,05,06,08,995.43
2009,05,05,06,09,995.43
2009,05,05,06,10,995.43
2009,05,05,06,11,995.43
2009,05,05,06,12,995.43
2009,05,05,06,13,995.43
2009,05,05,06,14,995.43
2009,05,05,06,15,995.50
2009,05,05,06,16,995.50
2009,05,05,06,17,995.50
2009,05,05,06,18,995.50
2009,05,05,06,19,995.50
2009,05,05,06,20,995.50
2009,05,05,06,21,995.50
2009,05,05,06,22,995.50
2009,05,05,06,23,995.50
2009,05,05,06,24,995.50
2009,05,05,06,25,995.50
2009,05,05,06,26,995.50
2009,05,05,06,27,995.50
2009,05,05,06,28,995.50
2009,05,05,06,29,995.50
2009,05,05,06,30,996.07
2009,05,05,06,31,996.07
2009,05,05,06,32,996.07
2009,05,05,06,33,996.07
2009,05,05,06,34,996.07
2009,05,05,06,35,996.07
2009,05,05,06,36,996.07
2009,05,05,06,37,996.07
2009,05,05,06,38,996.07
2009,05,05,06,39,996.07
2009,05,05,06,40,996.07
2009,05,05,06,41,996.07
2009,05,05,06,42,996.07
2009,05,05,06,43,996.07
2009,05,05,06,44,996.07
2009,05,05,06,45,996.49
2009,05,05,06,46,996.51
2009,05,05,06,47,996.51
2009,05,05,06,48,996.51
2009,05,05,06,49,996.51
2009,05,05,06,50,996.51
2009,05,05,06,51,996.51
2009,05,05,06,52,996.51
2009,05,05,06,53,996.51
2009,05,05,06,54,996.51
2009,05,05,06,55,996.51
2009,05,05,06,56,996.51
2009,05,05,06,57,996.51
2009,05,05,06,58,996.51
2009,05,05,06,59,996.51
2009,05,05,07,00,996.97
2009,05,05,07,01,996.99
2009,05,05,07,02,996.99
2009,05,05,07,03,996.99
2009,05,05,07,04,996.99
2009,05,05,07,05,996.99
2009,05,05,07,06,996.99
2009,05,05,07,07,996.99
2009,05,05,07,08,996.99
2009,05,05,07,09,996.99
2009,05,05,07,10,996.99
2009,05,05,07,11,996.99
2009,05,05,07,12,996.99
2009,05,05,07,13,996.99
2009,05,05,07,14,996.99
2009,05,05,07,15,997.46
2009,05,05,07,16,997.46
2009,05,05,07,17,997.46
2009,05,05,07,18,997.46
2009,05,05,07,19,997.46
2009,05,05,07,20,997.46
2009,05,05,07,21,997.46
2009,05,05,07,22,997.46
2009,05,05,07,23,997.46
2009,05,05,07,24,997.46
2009,05,05,07,25,997.46
2009,05,05,07,26,997.46
2009,05,05,07,27,997.46
2009,05,05,07,28,997.46
2009,05,05,07,29,997.46
2009,05,05,07,30,998.04
2009,05,05,07,31,998.07
2009,05,05,07,32,998.07
2009,05,05,07,33,998.07
2009,05,05,07,34,998.07
2009,05,05,07,35,998.07
2009,05,05,07,36,998.07
2009,05,05,07,37,998.07
2009,05,05,07,38,998.07
2009,05,05,07,39,998.07
2009,05,05,07,40,998.07
2009,05,05,07,41,998.07
2009,05,05,07,42,998.07
2009,05,05,07,43,998.07
2009,05,05,07,44,998.07
2009,05,05,07,45,998.49
2009,05,05,07,46,998.51
2009,05,05,07,47,998.51
2009,05,05,07,48,998.51
2009,05,05,07,49,998.51
2009,05,05,07,50,998.51
2009,05,05,07,51,998.51
2009,05,05,07,52,998.51
2009,05,05,07,53,998.51
2009,05,05,07,54,998.51
2009,05,05,07,55,998.51
2009,05,05,07,56,998.51
2009,05,05,07,57,998.51
2009,05,05,07,58,998.51
2009,05,05,07,59,998.51
2009,05,05,08,00,998.85
2009,05,05,08,01,998.85
2009,05,05,08,02,998.85
2009,05,05,08,03,998.85
2009,05,05,08,04,998.85
2009,05,05,08,05,998.85
2009,05,05,08,06,998.85
2009,05,05,08,07,998.85
2009,05,05,08,08,998.85
2009,05,05,08,09,998.85
2009,05,05,08,10,998.85
2009,05,05,08,11,998.85
2009,05,05,08,12,998.85
2009,05,05,08,13,998.85
2009,05,05,08,14,998.85
2009,05,05,08,15,999.17
2009,05,05,08,16,999.19
2009,05,05,08,17,999.19
2009,05,05,08,18,999.19
2009,05,05,08,19,999.19
2009,05,05,08,20,999.19
2009,05,05,08,21,999.19
2009,05,05,08,22,999.19
2009,05,05,08,23,999.19
2009,05,05,08,24,999.19
2009,05,05,08,25,999.19
2009,05,05,08,26,999.19
2009,05,05,08,27,999.19
2009,05,05,08,28,999.19
2009,05,05,08,29,999.19
2009,05,05,08,30,999.66
2009,05,05,08,31,999.66
2009,05,05,08,32,999.66
2009,05,05,08,33,999.66
2009,05,05,08,34,999.66
2009,05,05,08,35,999.66
2009,05,05,08,36,999.66
2009,05,05,08,37,999.66
2009,05,05,08,38,999.66
2009,05,05,08,39,999.66
2009,05,05,08,40,999.66
2009,05,05,08,41,999.66
2009,05,05,08,42,999.66
2009,05,05,08,43,999.66
2009,05,05,08,44,999.66
2009,05,05,08,45,1000.17
2009,05,05,08,46,1000.20
2009,05,05,08,47,1000.20
2009,05,05,08,48,1000.20
2009,05,05,08,49,1000.20
2009,05,05,08,50,1000.20
2009,05,05,08,51,1000.20
2009,05,05,08,52,1000.20
2009,05,05,08,53,1000.20
2009,05,05,08,54,1000.20
2009,05,05,08,55,1000.20
2009,05,05,08,56,1000.20
2009,05,05,08,57,1000.20
2009,05,05,08,58,1000.20
2009,05,05,08,59,1000.20
2009,05,05,09,00,1000.68
2009,05,05,09,01,1000.71
2009,05,05,09,02,1000.71
2009,05,05,09,03,1000.71
2009,05,05,09,04,1000.71
2009,05,05,09,05,1000.71
2009,05,05,09,06,1000.71
2009,05,05,09,07,1000.71
2009,05,05,09,08,1000.71
2009,05,05,09,09,1000.71
2009,05,05,09,10,1000.71
2009,05,05,09,11,1000.71
2009,05,05,09,12,1000.71
2009,05,05,09,13,1000.71
2009,05,05,09,14,1000.71
2009,05,05,09,15,1000.85
2009,05,05,09,16,1000.85
2009,05,05,09,17,1000.85
2009,05,05,09,18,1000.85
2009,05,05,09,19,1000.85
2009,05,05,09,20,1000.85
2009,05,05,09,21,1000.85
2009,05,05,09,22,1000.85
2009,05,05,09,23,1000.85
2009,05,05,09,24,1000.85
2009,05,05,09,25,1000.85
2009,05,05,09,26,1000.85
2009,05,05,09,27,1000.85
2009,05,05,09,28,1000.85
2009,05,05,09,29,1000.85
2009,05,05,09,30,1001.32
2009,05,05,09,31,1001.32
2009,05,05,09,32,1001.32
2009,05,05,09,33,1001.32
2009,05,05,09,34,1001.32
2009,05,05,09,35,1001.32
2009,05,05,09,36,1001.32
2009,05,05,09,37,1001.32
2009,05,05,09,38,1001.32
2009,05,05,09,39,1001.32
2009,05,05,09,40,1001.32
2009,05,05,09,41,1001.32
2009,05,05,09,42,1001.32
2009,05,05,09,43,1001.32
2009,05,05,09,44,1001.32
2009,05,05,09,45,1001.74
2009,05,05,09,46,1001.76
2009,05,05,09,47,1001.76
2009,05,05,09,48,1001.76
2009,05,05,09,49,1001.76
2009,05,05,09,50,1001.76
2009,05,05,09,51,1001.76
2009,05,05,09,52,1001.76
2009,05,05,09,53,1001.76
2009,05,05,09,54,1001.76
2009,05,05,09,55,1001.76
2009,05,05,09,56,1001.76
2009,05,05,09,57,1001.76
2009,05,05,09,58,1001.76
2009,05,05,09,59,1001.76
2009,05,05,10,00,1001.90
2009,05,05,10,01,1001.90
2009,05,05,10,02,1001.90
2009,05,05,10,03,1001.90
2009,05,05,10,04,1001.90
2009,05,05,10,05,1001.90
2009,05,05,10,06,1001.90
2009,05,05,10,07,1001.90
2009,05,05,10,08,1001.90
2009,05,05,10,09,1001.90
2009,05,05,10,10,1001.90
2009,05,05,10,11,1001.90
2009,05,05,10,12,1001.90
2009,05,05,10,13,1001.90
2009,05,05,10,14,1001.90
2009,05,05,10,15,1002.30
2009,05,05,10,16,1002.30
2009,05,05,10,17,1002.30
2009,05,05,10,18,1002.30
2009,05,05,10,19,1002.30
2009,05,05,10,20,1002.30
2009,05,05,10,21,1002.30
2009,05,05,10,22,1002.30
2009,05,05,10,23,1002.30
2009,05,05,10,24,1002.30
2009,05,05,10,25,1002.30
2009,05,05,10,26,1002.30
2009,05,05,10,27,1002.30
2009,05,05,10,28,1002.30
2009,05,05,10,29,1002.30
2009,05,05,10,30,1002.76
2009,05,05,10,31,1002.78
2009,05,05,10,32,1002.78
2009,05,05,10,33,1002.78
2009,05,05,10,34,1002.78
2009,05,05,10,35,1002.78
2009,05,05,10,36,1002.78
2009,05,05,10,37,1002.78
2009,05,05,10,38,1002.78
2009,05,05,10,39,1002.78
2009,05,05,10,40,1002.78
2009,05,05,10,41,1002.78
2009,05,05,10,42,1002.78
2009,05,05,10,43,1002.78
2009,05,05,10,44,1002.78
2009,05,05,10,45,1002.90
2009,05,05,10,46,1002.91
2009,05,05,10,47,1002.91
2009,05,05,10,48,1002.91
2009,05,05,10,49,1002.91
2009,05,05,10,50,1002.91
2009,05,05,10,51,1002.91
2009,05,05,10,52,1002.91
2009,05,05,10,53,1002.91
2009,05,05,10,54,1002.91
2009,05,05,10,55,1002.91
2009,05,05,10,56,1002.91
2009,05,05,10,57,1002.91
2009,05,05,10,58,1002.91
2009,05,05,10,59,1002.91
2009,05,05,11,00,1003.56
2009,05,05,11,01,1003.56
2009,05,05,11,02,1003.56
2009,05,05,11,03,1003.56
2009,05,05,11,04,1003.56
2009,05,05,11,05,1003.56
2009,05,05,11,06,1003.56
2009,05,05,11,07,1003.56
2009,05,05,11,08,1003.56
2009,05,05,11,09,1003.56
2009,05,05,11,10,1003.56
2009,05,05,11,11,1003.56
2009,05,05,11,12,1003.56
2009,05,05,11,13,1003.56
2009,05,05,11,14,1003.56
2009,05,05,11,15,1003.90
2009,05,05,11,16,1003.90
2009,05,05,11,17,1003.90
2009,05,05,11,18,1003.90
2009,05,05,11,19,1003.90
2009,05,05,11,20,1003.90
2009,05,05,11,21,1003.90
2009,05,05,11,22,1003.90
2009,05,05,11,23,1003.90
2009,05,05,11,24,1003.90
2009,05,05,11,25,1003.90
2009,05,05,11,26,1003.90
2009,05,05,11,27,1003.90
2009,05,05,11,28,1003.90
2009,05,05,11,29,1003.90
2009,05,05,11,30,1004.18
2009,05,05,11,31,1004.20
2009,05,05,11,32,1004.20
2009,05,05,11,33,1004.20
2009,05,05,11,34,1004.20
2009,05,05,11,35,1004.20
2009,05,05,11,36,1004.20
2009,05,05,11,37,1004.20
2009,05,05,11,38,1004.20
2009,05,05,11,39,1004.20
2009,05,05,11,40,1004.20
2009,05,05,11,41,1004.20
2009,05,05,11,42,1004.20
2009,05,05,11,43,1004.20
2009,05,05,11,44,1004.20
2009,05,05,11,45,1004.44
2009,05,05,11,46,1004.44
2009,05,05,11,47,1004.44
2009,05,05,11,48,1004.44
2009,05,05,11,49,1004.44
2009,05,05,11,50,1004.44
2009,05,05,11,51,1004.44
2009,05,05,11,52,1004.44
2009,05,05,11,53,1004.44
2009,05,05,11,54,1004.44
2009,05,05,11,55,1004.44
2009,05,05,11,56,1004.44
2009,05,05,11,57,1004.44
2009,05,05,11,58,1004.44
2009,05,05,11,59,1004.44
2009,05,05,12,00,1004.74
2009,05,05,12,01,1004.74
2009,05,05,12,02,1004.74
2009,05,05,12,03,1004.74
2009,05,05,12,04,1004.74
2009,05,05,12,05,1004.74
2009,05,05,12,06,1004.74
2009,05,05,12,07,1004.74
2009,05,05,12,08,1004.74
2009,05,05,12,09,1004.74
2009,05,05,12,10,1004.74
2009,05,05,12,11,1004.74
2009,05,05,12,12,1004.74
2009,05,05,12,13,1004.74
2009,05,05,12,14,1004.74
2009,05,05,12,15,1004.97
2009,05,05,12,16,1004.98
2009,05,05,12,17,1004.98
2009,05,05,12,18,1004.98
2009,05,05,12,19,1004.98
2009,05,05,12,20,1004.98
2009,05,05,12,21,1004.98
2009,05,05,12,22,1004.98
2009,05,05,12,23,1004.98
2009,05,05,12,24,1004.98
2009,05,05,12,25,1004.98
2009,05,05,12,26,1004.98
2009,05,05,12,27,1004.98
2009,05,05,12,28,1004.98
2009,05,05,12,29,1004.98
2009,05,05,12,30,1005.32
2009,05,05,12,31,1005.32
2009,05,05,12,32,1005.32
2009,05,05,12,33,1005.32
2009,05,05,12,34,1005.32
2009,05,05,12,35,1005.32
2009,05,05,12,36,1005.32
2009,05,05,12,37,1005.32
2009,05,05,12,38,1005.32
2009,05,05,12,39,1005.32
2009,05,05,12,40,1005.32
2009,05,05,12,41,1005.32
2009,05,05,12,42,1005.32
2009,05,05,12,43,1005.32
2009,05,05,12,44,1005.32
2009,05,05,12,45,1005.45
2009,05,05,12,46,1005.45
2009,05,05,12,47,1005.45
2009,05,05,12,48,1005.45
2009,05,05,12,49,1005.45
2009,05,05,12,50,1005.45
2009,05,05,12,51,1005.45
2009,05,05,12,52,1005.45
2009,05,05,12,53,1005.45
2009,05,05,12,54,1005.45
2009,05,05,12,55,1005.45
2009,05,05,12,56,1005.45
2009,05,05,12,57,1005.45
2009,05,05,12,58,1005.45
2009,05,05,12,59,1005.45
2009,05,05,13,00,1005.71
2009,05,05,13,01,1005.72
2009,05,05,13,02,1005.72
2009,05,05,13,03,1005.72
2009,05,05,13,04,1005.72
2009,05,05,13,05,1005.72
2009,05,05,13,06,1005.72
2009,05,05,13,07,1005.72
2009,05,05,13,08,1005.72
2009,05,05,13,09,1005.72
2009,05,05,13,10,1005.72
2009,05,05,13,11,1005.72
2009,05,05,13,12,1005.72
2009,05,05,13,13,1005.72
2009,05,05,13,14,1005.72
2009,05,05,13,15,1005.95
2009,05,05,13,16,1005.96
2009,05,05,13,17,1005.96
2009,05,05,13,18,1005.96
2009,05,05,13,19,1005.96
2009,05,05,13,20,1005.96
2009,05,05,13,21,1005.96
2009,05,05,13,22,1005.96
2009,05,05,13,23,1005.96
2009,05,05,13,24,1005.96
2009,05,05,13,25,1005.96
2009,05,05,13,26,1005.96
2009,05,05,13,27,1005.96
2009,05,05,13,28,1005.96
2009,05,05,13,29,1005.96
2009,05,05,13,30,1005.96
2009,05,05,13,31,1005.96
2009,05,05,13,32,1005.96
2009,05,05,13,33,1005.96
2009,05,05,13,34,1005.96
2009,05,05,13,35,1005.96
2009,05,05,13,36,1005.96
2009,05,05,13,37,1005.96
2009,05,05,13,38,1005.96
2009,05,05,13,39,1005.96
2009,05,05,13,40,1005.96
2009,05,05,13,41,1005.96
2009,05,05,13,42,1005.96
2009,05,05,13,43,1005.96
2009,05,05,13,44,1005.96
2009,05,05,13,45,1006.54
2009,05,05,13,46,1006.57
2009,05,05,13,47,1006.57
2009,05,05,13,48,1006.57
2009,05,05,13,49,1006.57
2009,05,05,13,50,1006.57
2009,05,05,13,51,1006.57
2009,05,05,13,52,1006.57
2009,05,05,13,53,1006.57
2009,05,05,13,54,1006.57
2009,05,05,13,55,1006.57
2009,05,05,13,56,1006.57
2009,05,05,13,57,1006.57
2009,05,05,13,58,1006.57
2009,05,05,13,59,1006.57
2009,05,05,14,00,1007.05
2009,05,05,14,01,1007.08
2009,05,05,14,02,1007.08
2009,05,05,14,03,1007.08
2009,05,05,14,04,1007.08
2009,05,05,14,05,1007.08
2009,05,05,14,06,1007.08
2009,05,05,14,07,1007.08
2009,05,05,14,08,1007.08
2009,05,05,14,09,1007.08
2009,05,05,14,10,1007.08
2009,05,05,14,11,1007.08
2009,05,05,14,12,1007.08
2009,05,05,14,13,1007.08
2009,05,05,14,14,1007.08
2009,05,05,14,15,1007.45
2009,05,05,14,16,1007.45
2009,05,05,14,17,1007.45
2009,05,05,14,18,1007.45
2009,05,05,14,19,1007.45
2009,05,05,14,20,1007.45
2009,05,05,14,21,1007.45
2009,05,05,14,22,1007.45
2009,05,05,14,23,1007.45
2009,05,05,14,24,1007.45
2009,05,05,14,25,1007.45
2009,05,05,14,26,1007.45
2009,05,05,14,27,1007.45
2009,05,05,14,28,1007.45
2009,05,05,14,29,1007.45
2009,05,05,14,30,1007.72
2009,05,05,14,31,1007.72
2009,05,05,14,32,1007.72
2009,05,05,14,33,1007.72
2009,05,05,14,34,1007.72
2009,05,05,14,35,1007.72
2009,05,05,14,36,1007.72
2009,05,05,14,37,1007.72
2009,05,05,14,38,1007.72
2009,05,05,14,39,1007.72
2009,05,05,14,40,1007.72
2009,05,05,14,41,1007.72
2009,05,05,14,42,1007.72
2009,05,05,14,43,1007.72
2009,05,05,14,44,1007.72
2009,05,05,14,45,1007.79
2009,05,05,14,46,1007.79
2009,05,05,14,47,1007.79
2009,05,05,14,48,1007.79
2009,05,05,14,49,1007.79
2009,05,05,14,50,1007.79
2009,05,05,14,51,1007.79
2009,05,05,14,52,1007.79
2009,05,05,14,53,1007.79
2009,05,05,14,54,1007.79
2009,05,05,14,55,1007.79
2009,05,05,14,56,1007.79
2009,05,05,14,57,1007.79
2009,05,05,14,58,1007.79
2009,05,05,14,59,1007.79
2009,05,05,15,00,1008.08
2009,05,05,15,01,1008.09
2009,05,05,15,02,1008.09
2009,05,05,15,03,1008.09
2009,05,05,15,04,1008.09
2009,05,05,15,05,1008.09
2009,05,05,15,06,1008.09
2009,05,05,15,07,1008.09
2009,05,05,15,08,1008.09
2009,05,05,15,09,1008.09
2009,05,05,15,10,1008.09
2009,05,05,15,11,1008.09
2009,05,05,15,12,1008.09
2009,05,05,15,13,1008.09
2009,05,05,15,14,1008.09
2009,05,05,15,15,1008.16
2009,05,05,15,16,1008.16
2009,05,05,15,17,1008.16
2009,05,05,15,18,1008.16
2009,05,05,15,19,1008.16
2009,05,05,15,20,1008.16
2009,05,05,15,21,1008.16
2009,05,05,15,22,1008.16
2009,05,05,15,23,1008.16
2009,05,05,15,24,1008.16
2009,05,05,15,25,1008.16
2009,05,05,15,26,1008.16
2009,05,05,15,27,1008.16
2009,05,05,15,28,1008.16
2009,05,05,15,29,1008.16
2009,05,05,15,30,1008.20
2009,05,05,15,31,1008.20
2009,05,05,15,32,1008.20
2009,05,05,15,33,1008.20
2009,05,05,15,34,1008.20
2009,05,05,15,35,1008.20
2009,05,05,15,36,1008.20
2009,05,05,15,37,1008.20
2009,05,05,15,38,1008.20
2009,05,05,15,39,1008.20
2009,05,05,15,40,1008.20
2009,05,05,15,41,1008.20
2009,05,05,15,42,1008.20
2009,05,05,15,43,1008.20
2009,05,05,15,44,1008.20
2009,05,05,15,45,1008.16
2009,05,05,15,46,1008.16
2009,05,05,15,47,1008.16
2009,05,05,15,48,1008.16
2009,05,05,15,49,1008.16
2009,05,05,15,50,1008.16
2009,05,05,15,51,1008.16
2009,05,05,15,52,1008.16
2009,05,05,15,53,1008.16
2009,05,05,15,54,1008.16
2009,05,05,15,55,1008.16
2009,05,05,15,56,1008.16
2009,05,05,15,57,1008.16
2009,05,05,15,58,1008.16
2009,05,05,15,59,1008.16
2009,05,05,16,00,1008.23
2009,05,05,16,01,1008.23
2009,05,05,16,02,1008.23
2009,05,05,16,03,1008.23
2009,05,05,16,04,1008.23
2009,05,05,16,05,1008.23
2009,05,05,16,06,1008.23
2009,05,05,16,07,1008.23
2009,05,05,16,08,1008.23
2009,05,05,16,09,1008.23
2009,05,05,16,10,1008.23
2009,05,05,16,11,1008.23
2009,05,05,16,12,1008.23
2009,05,05,16,13,1008.23
2009,05,05,16,14,1008.23
2009,05,05,16,15,1008.30
2009,05,05,16,16,1008.30
2009,05,05,16,17,1008.30
2009,05,05,16,18,1008.30
2009,05,05,16,19,1008.30
2009,05,05,16,20,1008.30